SQ2FRB-13 Weather Reports


Display with metric or nautical units.
time (UTC)temp
F
wind
direction
speed
MPH
gust
MPH
rain 1hr
in
rain 24hr
in
rain mn
in
humidity
%
barometer
mb
20181117103138 41 23 2.0 5.0 0.00 0.00 0.00 76 1043.1
20181117103041 41 23 2.0 5.0 0.00 0.00 0.00 76 1043.1
20181117102541 41 54 2.0 4.0 0.00 0.00 0.00 76 1043.1
20181117102041 41 356 2.0 3.0 0.00 0.00 0.00 76 1043.1
20181117101541 41 18 2.0 4.0 0.00 0.00 0.00 75 1043.0
20181117101041 41 53 2.0 4.0 0.00 0.00 0.00 75 1043.0
20181117100541 41 59 2.0 4.0 0.00 0.00 0.00 75 1043.0
20181117100041 41 45 1.0 3.0 0.00 0.00 0.00 75 1043.0
20181117095541 42 76 0.0 2.0 0.00 0.00 0.00 77 1043.1
20181117095041 42 83 0.0 1.0 0.00 0.00 0.00 79 1043.1
20181117094541 41 50 1.0 2.0 0.00 0.00 0.00 79 1043.1
20181117094041 40 109 2.0 2.0 0.00 0.00 0.00 79 1043.1
20181117093541 40 106 2.0 4.0 0.00 0.00 0.00 79 1043.1
20181117093042 40 127 1.0 3.0 0.00 0.00 0.00 80 1043.1
20181117092541 40 126 1.0 2.0 0.00 0.00 0.00 80 1043.1
20181117092041 39 59 2.0 2.0 0.00 0.00 0.00 80 1043.1
20181117091541 39 63 2.0 4.0 0.00 0.00 0.00 80 1043.1
20181117091041 39 38 2.0 3.0 0.00 0.00 0.00 80 1043.1
20181117090541 39 41 2.0 2.0 0.00 0.00 0.00 82 1043.1
20181117090119 38 94 2.0 5.0 0.00 0.00 0.00 82 1043.1
20181117090043 38 94 2.0 5.0 0.00 0.00 0.00 82 1043.1
20181117090041 38 94 2.0 5.0 0.00 0.00 0.00 82 1043.1
20181117085541 38 47 1.0 3.0 0.00 0.00 0.00 82 1043.1
20181117085041 38 19 1.0 2.0 0.00 0.00 0.00 83 1043.1
20181117084541 38 357 2.0 2.0 0.00 0.00 0.00 83 1043.1
20181117084041 38 16 2.0 2.0 0.00 0.00 0.00 83 1043.1
20181117083541 37 69 1.0 2.0 0.00 0.00 0.00 84 1043.0
20181117083041 37 336 1.0 4.0 0.00 0.00 0.00 84 1043.0
20181117082541 37 43 1.0 2.0 0.00 0.00 0.00 84 1043.0
20181117082041 37 42 2.0 2.0 0.00 0.00 0.00 84 1043.0
20181117081541 36 50 2.0 4.0 0.00 0.00 0.00 85 1043.0
20181117081041 36 52 2.0 3.0 0.00 0.00 0.00 85 1043.0
20181117080542 36 31 2.0 4.0 0.00 0.00 0.00 85 1043.0
20181117080042 36 73 2.0 4.0 0.00 0.00 0.00 85 1043.0
20181117075541 35 38 2.0 3.0 0.00 0.00 0.00 86 1042.7
20181117075041 35 48 3.0 5.0 0.00 0.00 0.00 86 1042.7
20181117074541 35 31 3.0 5.0 0.00 0.00 0.00 87 1042.7
20181117074041 35 43 3.0 5.0 0.00 0.00 0.00 87 1042.7
20181117073542 34 90 3.0 5.0 0.00 0.00 0.00 87 1042.7
20181117073043 34 109 3.0 5.0 0.00 0.00 0.00 87 1042.7
20181117072542 34 104 3.0 5.0 0.00 0.00 0.00 88 1042.7
20181117072041 34 118 2.0 4.0 0.00 0.00 0.00 88 1042.7
20181117071541 34 115 1.0 4.0 0.00 0.00 0.00 87 1042.8
20181117071041 33 121 0.0 2.0 0.00 0.00 0.00 87 1042.8
20181117070541 33 83 1.0 2.0 0.00 0.00 0.00 87 1042.8
20181117070046 32 68 1.0 2.0 0.00 0.00 0.00 87 1042.8
20181117070041 32 68 1.0 2.0 0.00 0.00 0.00 87 1042.8
20181117065541 32 45 2.0 3.0 0.00 0.00 0.00 88 1042.4
20181117065041 32 57 3.0 3.0 0.00 0.00 0.00 88 1042.4
20181117064541 32 15 3.0 4.0 0.00 0.00 0.00 88 1042.4
20181117064041 31 32 3.0 3.0 0.00 0.00 0.00 88 1042.4
20181117063541 31 30 3.0 4.0 0.00 0.00 0.00 87 1042.4
20181117063041 31 26 3.0 4.0 0.00 0.00 0.00 87 1042.4
20181117062541 31 27 3.0 4.0 0.00 0.00 0.00 87 1042.4
20181117062041 31 32 3.0 4.0 0.00 0.00 0.00 87 1042.4
20181117061542 31 339 3.0 4.0 0.00 0.00 0.00 87 1042.5
20181117061042 31 350 4.0 5.0 0.00 0.00 0.00 87 1042.5
20181117060541 31 356 4.0 7.0 0.00 0.00 0.00 87 1042.5
20181117060041 31 8 4.0 6.0 0.00 0.00 0.00 87 1042.5
20181117055541 31 355 3.0 6.0 0.00 0.00 0.00 87 1041.9
20181117055041 32 63 3.0 6.0 0.00 0.00 0.00 87 1041.9
20181117054541 32 30 3.0 4.0 0.00 0.00 0.00 87 1041.9
20181117054041 32 17 3.0 4.0 0.00 0.00 0.00 87 1041.9
20181117053541 32 24 3.0 4.0 0.00 0.00 0.00 87 1041.9
20181117053041 32 49 3.0 3.0 0.00 0.00 0.00 87 1041.9
20181117052541 32 56 2.0 3.0 0.00 0.00 0.00 87 1041.9
20181117052041 32 51 2.0 3.0 0.00 0.00 0.00 87 1041.9
20181117051541 32 13 2.0 3.0 0.00 0.00 0.00 87 1042.0
20181117051041 32 0 2.0 3.0 0.00 0.00 0.00 87 1042.0
20181117050541 32 357 2.0 3.0 0.00 0.00 0.00 87 1042.0
20181117050043 32 18 2.0 3.0 0.00 0.00 0.00 87 1042.0
20181117050041 32 18 2.0 3.0 0.00 0.00 0.00 87 1042.0
20181117045541 33 38 2.0 3.0 0.00 0.00 0.00 87 1042.1
20181117045041 33 19 2.0 3.0 0.00 0.00 0.00 87 1042.1
20181117044541 33 96 2.0 4.0 0.00 0.00 0.00 87 1042.1
20181117044115 33 78 1.0 4.0 0.00 0.00 0.00 87 1042.1
20181117044041 33 78 1.0 4.0 0.00 0.00 0.00 87 1042.1
20181117043541 33 60 1.0 3.0 0.00 0.00 0.00 87 1042.4
20181117043042 33 54 1.0 2.0 0.00 0.00 0.00 87 1042.4
20181117042542 33 66 2.0 3.0 0.00 0.00 0.00 87 1042.4
20181117042041 33 106 2.0 3.0 0.00 0.00 0.00 87 1042.4
20181117041541 33 85 2.0 3.0 0.00 0.00 0.00 87 1042.3
20181117041041 33 58 2.0 3.0 0.00 0.00 0.00 87 1042.3
20181117040541 33 64 2.0 3.0 0.00 0.00 0.00 87 1042.3
20181117040041 33 61 2.0 3.0 0.00 0.00 0.00 87 1042.3
20181117035541 33 103 3.0 5.0 0.00 0.00 0.00 87 1042.5
20181117035041 33 84 3.0 5.0 0.00 0.00 0.00 86 1042.5
20181117034633 33 70 3.0 5.0 0.00 0.00 0.00 86 1042.5
20181117034541 33 70 3.0 5.0 0.00 0.00 0.00 86 1042.5
20181117034041 34 68 3.0 4.0 0.00 0.00 0.00 86 1042.5
20181117033541 34 70 3.0 4.0 0.00 0.00 0.00 86 1042.7
20181117033041 34 67 3.0 4.0 0.00 0.00 0.00 86 1042.7
20181117032641 34 62 3.0 5.0 0.00 0.00 0.00 86 1042.7
20181117032541 34 62 3.0 5.0 0.00 0.00 0.00 86 1042.7
20181117032041 34 55 3.0 5.0 0.00 0.00 0.00 86 1042.7
20181117031541 34 59 3.0 4.0 0.00 0.00 0.00 86 1042.2
20181117031124 34 75 3.0 5.0 0.00 0.00 0.00 86 1042.2
20181117031042 34 75 3.0 5.0 0.00 0.00 0.00 86 1042.2
20181117030542 34 79 3.0 5.0 0.00 0.00 0.00 86 1042.2
20181117030135 34 68 3.0 3.0 0.00 0.00 0.00 86 1042.2
20181117030041 34 68 3.0 3.0 0.00 0.00 0.00 86 1042.2
20181117025541 34 64 2.0 4.0 0.00 0.00 0.00 86 1042.1
20181117025041 34 43 3.0 3.0 0.00 0.00 0.00 86 1042.1
20181117024542 34 68 3.0 4.0 0.00 0.00 0.00 86 1042.1
20181117024042 34 86 3.0 4.0 0.00 0.00 0.00 86 1042.1
20181117023541 34 59 2.0 4.0 0.00 0.00 0.00 86 1042.2
20181117023041 34 68 2.0 4.0 0.00 0.00 0.00 86 1042.3
20181117022629 34 47 2.0 3.0 0.00 0.00 0.00 86 1042.3
20181117022541 34 47 2.0 3.0 0.00 0.00 0.00 86 1042.3
20181117022041 35 38 2.0 3.0 0.00 0.00 0.00 86 1042.3
20181117021541 35 30 2.0 3.0 0.00 0.00 0.00 86 1042.3
20181117021041 35 22 2.0 3.0 0.00 0.00 0.00 86 1042.3
20181117020541 35 22 2.0 3.0 0.00 0.00 0.00 86 1042.3
20181117020113 35 29 3.0 3.0 0.00 0.00 0.00 86 1042.3
20181117020041 35 29 3.0 3.0 0.00 0.00 0.00 86 1042.3
20181117015541 35 25 3.0 4.0 0.00 0.00 0.00 86 1042.3
20181117015041 35 22 3.0 4.0 0.00 0.00 0.00 86 1042.3
20181117014626 35 34 2.0 4.0 0.00 0.00 0.00 86 1042.3
20181117014541 35 34 2.0 4.0 0.00 0.00 0.00 86 1042.3
20181117014041 35 36 3.0 4.0 0.00 0.00 0.00 85 1042.3
20181117013541 35 45 3.0 4.0 0.00 0.00 0.00 85 1042.4
20181117013041 35 45 3.0 3.0 0.00 0.00 0.00 85 1042.4
20181117012541 35 45 3.0 4.0 0.00 0.00 0.00 85 1042.4
20181117012041 35 13 3.0 4.0 0.00 0.00 0.00 85 1042.4
20181117011541 35 34 2.0 4.0 0.00 0.00 0.00 85 1042.4
20181117011041 35 45 2.0 3.0 0.00 0.00 0.00 85 1042.4
20181117010541 35 59 1.0 3.0 0.00 0.00 0.00 85 1042.4
20181117010042 36 63 1.0 2.0 0.00 0.00 0.00 84 1042.4
20181117005712 36 51 1.0 1.0 0.00 0.00 0.00 84 1042.6
20181117005542 36 51 1.0 1.0 0.00 0.00 0.00 84 1042.6
20181117005041 36 73 1.0 2.0 0.00 0.00 0.00 84 1042.6
20181117004541 36 71 1.0 2.0 0.00 0.00 0.00 84 1042.6
20181117004129 36 73 2.0 2.0 0.00 0.00 0.00 84 1042.6
20181117004041 36 73 2.0 2.0 0.00 0.00 0.00 84 1042.6
20181117003541 36 103 2.0 3.0 0.00 0.00 0.00 84 1042.6
20181117003041 36 84 2.0 2.0 0.00 0.00 0.00 84 1042.6
20181117002542 36 65 2.0 2.0 0.00 0.00 0.00 84 1042.6
20181117002042 36 61 2.0 3.0 0.00 0.00 0.00 84 1042.6
20181117001541 36 54 2.0 3.0 0.00 0.00 0.00 84 1042.5
20181117001041 36 104 2.0 3.0 0.00 0.00 0.00 84 1042.4
20181117000541 36 111 2.0 3.0 0.00 0.00 0.00 84 1042.4
20181117000041 36 98 2.0 3.0 0.00 0.00 0.00 84 1042.4
20181116235541 37 88 2.0 3.0 0.00 0.00 0.00 84 1042.6
20181116235041 37 99 2.0 3.0 0.00 0.00 0.00 84 1042.6
20181116234541 37 107 2.0 3.0 0.00 0.00 0.00 83 1042.6
20181116234041 37 83 2.0 3.0 0.00 0.00 0.00 83 1042.6
20181116233541 37 2 2.0 3.0 0.00 0.00 0.00 83 1042.5
20181116233132 37 56 2.0 2.0 0.00 0.00 0.00 83 1042.5
20181116233041 37 56 2.0 2.0 0.00 0.00 0.00 83 1042.5
20181116232542 37 85 2.0 3.0 0.00 0.00 0.00 82 1042.5
20181116232042 37 74 2.0 3.0 0.00 0.00 0.00 82 1042.5
20181116231541 37 98 2.0 3.0 0.00 0.00 0.00 82 1042.3
20181116231042 37 90 2.0 2.0 0.00 0.00 0.00 82 1042.3
20181116230547 37 93 2.0 3.0 0.00 0.00 0.00 82 1042.3
20181116230041 38 97 2.0 3.0 0.00 0.00 0.00 81 1042.3
20181116225541 38 111 1.0 2.0 0.00 0.00 0.00 81 1042.5
20181116225041 38 104 1.0 2.0 0.00 0.00 0.00 80 1042.6
20181116224541 38 92 2.0 2.0 0.00 0.00 0.00 80 1042.6
20181116224041 38 73 2.0 2.0 0.00 0.00 0.00 80 1042.6
20181116223541 38 68 2.0 3.0 0.00 0.00 0.00 79 1042.9
20181116223041 38 54 2.0 3.0 0.00 0.00 0.00 79 1042.9
20181116222541 39 49 2.0 3.0 0.00 0.00 0.00 79 1042.9
20181116222041 39 63 2.0 2.0 0.00 0.00 0.00 79 1042.9
20181116221541 39 101 2.0 3.0 0.00 0.00 0.00 79 1042.6
20181116221041 39 81 2.0 3.0 0.00 0.00 0.00 79 1042.5
20181116220541 39 94 2.0 3.0 0.00 0.00 0.00 78 1042.5
20181116220143 39 100 2.0 3.0 0.00 0.00 0.00 78 1042.5
20181116220041 39 100 2.0 3.0 0.00 0.00 0.00 78 1042.5
20181116215541 39 104 2.0 3.0 0.00 0.00 0.00 78 1042.5
20181116215041 39 121 2.0 3.0 0.00 0.00 0.00 78 1042.4
20181116214541 39 139 2.0 4.0 0.00 0.00 0.00 78 1042.4
20181116214041 39 118 2.0 4.0 0.00 0.00 0.00 78 1042.4
20181116213541 39 133 2.0 4.0 0.00 0.00 0.00 77 1042.6
20181116213041 39 104 1.0 3.0 0.00 0.00 0.00 77 1042.6
20181116212541 40 97 2.0 2.0 0.00 0.00 0.00 77 1042.6
20181116212041 40 118 2.0 4.0 0.00 0.00 0.00 77 1042.6
20181116211541 40 84 2.0 4.0 0.00 0.00 0.00 77 1042.4
20181116211041 40 117 3.0 4.0 0.00 0.00 0.00 77 1042.4
20181116210541 40 121 3.0 4.0 0.00 0.00 0.00 77 1042.4
20181116210226 40 134 3.0 5.0 0.00 0.00 0.00 77 1042.4
20181116210041 40 134 3.0 5.0 0.00 0.00 0.00 77 1042.4
20181116205541 40 129 3.0 5.0 0.00 0.00 0.00 77 1042.4
20181116205041 40 135 3.0 4.0 0.00 0.00 0.00 77 1042.4
20181116204622 40 127 3.0 5.0 0.00 0.00 0.00 77 1042.4
20181116204541 40 127 3.0 5.0 0.00 0.00 0.00 77 1042.4
20181116204119 40 136 3.0 4.0 0.00 0.00 0.00 77 1042.4
20181116204041 40 136 3.0 4.0 0.00 0.00 0.00 77 1042.4
20181116203541 40 157 3.0 6.0 0.00 0.00 0.00 77 1042.5
20181116203041 40 135 3.0 5.0 0.00 0.00 0.00 77 1042.5
20181116202541 40 166 3.0 6.0 0.00 0.00 0.00 77 1042.5
20181116202041 40 162 3.0 7.0 0.00 0.00 0.00 77 1042.5
20181116201541 39 127 4.0 7.0 0.00 0.00 0.00 77 1042.5
20181116201132 39 144 4.0 6.0 0.00 0.00 0.00 76 1042.5
20181116201041 39 144 4.0 6.0 0.00 0.00 0.00 76 1042.5
20181116200541 39 143 3.0 7.0 0.00 0.00 0.00 77 1042.5
20181116200151 39 184 3.0 6.0 0.00 0.00 0.00 77 1042.5
20181116200043 39 184 3.0 6.0 0.00 0.00 0.00 77 1042.5
20181116200041 39 184 3.0 6.0 0.00 0.00 0.00 77 1042.5
20181116195541 39 121 3.0 6.0 0.00 0.00 0.00 77 1042.4
20181116195041 39 137 3.0 5.0 0.00 0.00 0.00 76 1042.4
20181116194541 39 96 3.0 6.0 0.00 0.00 0.00 76 1042.4
20181116194041 39 108 4.0 6.0 0.00 0.00 0.00 76 1042.4
20181116193541 39 135 5.0 6.0 0.00 0.00 0.00 76 1042.5
20181116193041 39 135 5.0 8.0 0.00 0.00 0.00 76 1042.5
20181116192541 39 132 4.0 8.0 0.00 0.00 0.00 76 1042.5
20181116192041 39 107 4.0 6.0 0.00 0.00 0.00 76 1042.5
20181116191541 39 102 5.0 6.0 0.00 0.00 0.00 76 1042.7
20181116191041 39 126 5.0 7.0 0.00 0.00 0.00 76 1042.7
20181116190541 39 141 5.0 8.0 0.00 0.00 0.00 76 1042.7
20181116190043 39 137 5.0 8.0 0.00 0.00 0.00 76 1042.7
20181116190041 39 137 5.0 8.0 0.00 0.00 0.00 76 1042.7
20181116185541 39 125 4.0 9.0 0.00 0.00 0.00 76 1042.5
20181116185041 39 121 4.0 7.0 0.00 0.00 0.00 76 1042.5
20181116184541 39 129 4.0 7.0 0.00 0.00 0.00 76 1042.5
20181116184125 39 129 5.0 7.0 0.00 0.00 0.00 77 1042.5
20181116184041 39 129 5.0 7.0 0.00 0.00 0.00 77 1042.5
20181116183541 39 135 6.0 7.0 0.00 0.00 0.00 76 1042.6
20181116183041 39 135 6.0 9.0 0.00 0.00 0.00 76 1042.6
20181116182541 39 128 4.0 8.0 0.00 0.00 0.00 77 1042.6
20181116182041 39 109 4.0 6.0 0.00 0.00 0.00 77 1042.6
20181116181541 39 154 4.0 7.0 0.00 0.00 0.00 77 1042.4
20181116181041 39 122 4.0 8.0 0.00 0.00 0.00 77 1042.3
20181116180541 39 172 4.0 7.0 0.00 0.00 0.00 77 1042.3
20181116180041 39 142 4.0 9.0 0.00 0.00 0.00 77 1042.3
20181116175541 39 109 4.0 9.0 0.00 0.00 0.00 78 1042.3
20181116175041 39 160 4.0 5.0 0.00 0.00 0.00 78 1042.3
20181116174541 39 109 5.0 9.0 0.00 0.00 0.00 77 1042.3
20181116174041 39 128 5.0 9.0 0.00 0.00 0.00 77 1042.3
20181116173541 39 121 5.0 9.0 0.00 0.00 0.00 77 1042.2
20181116173041 39 142 5.0 7.0 0.00 0.00 0.00 78 1042.1
20181116172541 39 136 5.0 6.0 0.00 0.00 0.00 78 1042.1
20181116172041 39 124 4.0 8.0 0.00 0.00 0.00 78 1042.1
20181116171541 39 114 5.0 8.0 0.00 0.00 0.00 78 1042.1
20181116171146 39 119 5.0 8.0 0.00 0.00 0.00 78 1042.1
20181116171041 39 119 5.0 8.0 0.00 0.00 0.00 78 1042.1
20181116170541 39 123 6.0 7.0 0.00 0.00 0.00 77 1042.1
20181116170042 39 120 5.0 7.0 0.00 0.00 0.00 77 1042.1
20181116165542 39 126 7.0 8.0 0.00 0.00 0.00 77 1042.2
20181116165041 39 135 7.0 9.0 0.00 0.00 0.00 77 1042.3
20181116164541 39 125 6.0 11.0 0.00 0.00 0.00 78 1042.3
20181116164041 39 101 5.0 8.0 0.00 0.00 0.00 78 1042.3
20181116163541 39 127 4.0 9.0 0.00 0.00 0.00 78 1042.2
20181116163041 39 118 5.0 6.0 0.00 0.00 0.00 79 1042.1
20181116162541 39 119 5.0 7.0 0.00 0.00 0.00 78 1042.1
20181116162041 39 107 5.0 8.0 0.00 0.00 0.00 79 1042.1
20181116161541 39 101 4.0 6.0 0.00 0.00 0.00 79 1042.1
20181116161041 39 98 5.0 6.0 0.00 0.00 0.00 78 1042.1
20181116160541 40 95 4.0 6.0 0.00 0.00 0.00 78 1042.1
20181116160041 40 94 4.0 7.0 0.00 0.00 0.00 78 1042.1
20181116155542 40 154 4.0 7.0 0.00 0.00 0.00 77 1042.0
20181116155041 40 114 4.0 5.0 0.00 0.00 0.00 77 1042.0
20181116154541 40 136 6.0 6.0 0.00 0.00 0.00 76 1042.0
20181116154041 40 147 6.0 8.0 0.00 0.00 0.00 77 1042.0
20181116153541 40 115 5.0 7.0 0.00 0.00 0.00 77 1042.1
20181116153148 40 122 4.0 10.0 0.00 0.00 0.00 77 1042.1
20181116153041 40 122 4.0 10.0 0.00 0.00 0.00 77 1042.1
20181116152541 40 112 4.0 7.0 0.00 0.00 0.00 77 1042.1
20181116152041 40 104 4.0 5.0 0.00 0.00 0.00 77 1042.1
20181116151541 40 124 4.0 5.0 0.00 0.00 0.00 77 1041.7
20181116151041 40 109 5.0 5.0 0.00 0.00 0.00 76 1041.6
20181116150541 40 109 5.0 7.0 0.00 0.00 0.00 76 1041.6
20181116150041 40 135 5.0 10.0 0.00 0.00 0.00 77 1041.6
20181116145541 40 115 5.0 10.0 0.00 0.00 0.00 76 1041.3
20181116145041 40 122 5.0 9.0 0.00 0.00 0.00 76 1041.3
20181116144627 40 112 4.0 6.0 0.00 0.00 0.00 76 1041.3
20181116144541 40 112 4.0 6.0 0.00 0.00 0.00 76 1041.3
20181116144041 40 96 4.0 7.0 0.00 0.00 0.00 76 1041.3
20181116143541 40 84 4.0 7.0 0.00 0.00 0.00 76 1041.0
20181116143149 40 98 4.0 7.0 0.00 0.00 0.00 76 1041.0
20181116143041 40 98 4.0 7.0 0.00 0.00 0.00 76 1041.0
20181116142541 40 114 3.0 5.0 0.00 0.00 0.00 76 1041.0
20181116142041 40 135 4.0 5.0 0.00 0.00 0.00 76 1041.0
20181116141706 40 126 4.0 5.0 0.00 0.00 0.00 76 1040.8
20181116141541 40 126 4.0 5.0 0.00 0.00 0.00 76 1040.8
20181116141041 40 168 4.0 6.0 0.00 0.00 0.00 76 1040.8
20181116140542 41 124 3.0 5.0 0.00 0.00 0.00 76 1040.8
20181116140138 41 129 4.0 5.0 0.00 0.00 0.00 76 1040.8
20181116140042 41 129 4.0 5.0 0.00 0.00 0.00 76 1040.8
20181116135541 41 128 5.0 6.0 0.00 0.00 0.00 76 1040.5
20181116135041 41 149 6.0 6.0 0.00 0.00 0.00 76 1040.5
20181116134541 41 141 6.0 8.0 0.00 0.00 0.00 76 1040.5
20181116134145 41 128 6.0 7.0 0.00 0.00 0.00 76 1040.5
20181116134041 41 128 6.0 7.0 0.00 0.00 0.00 76 1040.5
20181116133541 41 139 5.0 9.0 0.00 0.00 0.00 77 1040.2
20181116133041 41 132 5.0 9.0 0.00 0.00 0.00 77 1040.2
20181116132541 41 121 4.0 9.0 0.00 0.00 0.00 77 1040.2
20181116132041 42 138 3.0 4.0 0.00 0.00 0.00 77 1040.2
20181116131541 42 87 3.0 7.0 0.00 0.00 0.00 77 1040.2
20181116131216 42 122 3.0 7.0 0.00 0.00 0.00 77 1040.2
20181116131041 42 122 3.0 7.0 0.00 0.00 0.00 77 1040.2
20181116130541 42 69 3.0 5.0 0.00 0.00 0.00 77 1040.2
20181116130041 42 136 3.0 6.0 0.00 0.00 0.00 77 1040.2
20181116125541 42 110 3.0 5.0 0.00 0.00 0.00 77 1040.4
20181116125041 42 135 3.0 5.0 0.00 0.00 0.00 77 1040.4
20181116124541 42 135 4.0 7.0 0.00 0.00 0.00 76 1040.4
20181116124042 42 119 5.0 7.0 0.00 0.00 0.00 76 1040.4
20181116123542 42 115 5.0 8.0 0.00 0.00 0.00 76 1040.5
20181116123041 42 135 4.0 8.0 0.00 0.00 0.00 76 1040.5
20181116122541 42 135 4.0 8.0 0.00 0.00 0.00 77 1040.5
20181116122041 42 149 4.0 5.0 0.00 0.00 0.00 76 1040.5
20181116121541 42 136 4.0 8.0 0.00 0.00 0.00 77 1040.6
20181116121041 42 112 4.0 8.0 0.00 0.00 0.00 77 1040.6
20181116120541 42 122 5.0 8.0 0.00 0.00 0.00 77 1040.6
20181116120042 42 112 4.0 7.0 0.00 0.00 0.00 78 1040.6
20181116115541 42 115 3.0 7.0 0.00 0.00 0.00 78 1040.5
20181116115041 42 78 3.0 5.0 0.00 0.00 0.00 79 1040.5
20181116114541 42 114 4.0 5.0 0.00 0.00 0.00 79 1040.5
20181116114041 42 103 4.0 5.0 0.00 0.00 0.00 79 1040.5
20181116113541 42 143 4.0 8.0 0.00 0.00 0.00 78 1040.6
20181116113116 42 97 4.0 6.0 0.00 0.00 0.00 78 1040.6
20181116113042 42 97 4.0 6.0 0.00 0.00 0.00 78 1040.6
20181116112542 42 89 4.0 6.0 0.00 0.00 0.00 78 1040.6
20181116112041 42 81 4.0 6.0 0.00 0.00 0.00 78 1040.6
20181116111541 42 103 3.0 5.0 0.00 0.00 0.00 78 1040.8
20181116111041 42 90 3.0 5.0 0.00 0.00 0.00 78 1040.8
20181116110541 42 93 3.0 5.0 0.00 0.00 0.00 78 1040.8
20181116110041 42 87 3.0 6.0 0.00 0.00 0.00 78 1040.8
20181116105541 42 103 4.0 6.0 0.00 0.00 0.00 78 1040.7
20181116105041 42 128 5.0 7.0 0.00 0.00 0.00 78 1040.7
20181116104541 42 162 4.0 7.0 0.00 0.00 0.00 78 1040.7
20181116104041 42 126 4.0 8.0 0.00 0.00 0.00 78 1040.7
20181116103541 42 143 4.0 5.0 0.00 0.00 0.00 78 1040.8